Miscellaneous Local Product
Issued by NWS Hastings, NE

Home | Current Version | Previous Version | Text Only | Print | Product List | Glossary Off
Versions: 1 2 3 4 5 6 7 8 9 10 11 12 13 14 15 16 17 18 19 20 21 22 23 24 25 26 27 28 29 30 31 32 33 34 35 36 37 38 39 40 41 42 43 44 45 46 47 48 49 50

000
AXUS43 KGID 140602
MISGRI

GID CWA HOURLY WEATHER ROUNDUP
NATIONAL WEATHER SERVICE HASTINGS NE
100 AM CDT SUN SEP 14 2014

NOTE: "FAIR" INDICATES FEW OR NO CLOUDS BELOW 12,000 FEET WITH NO
SIGNIFICANT WEATHER AND/OR OBSTRUCTIONS TO VISIBILITY.

...SOUTH CENTRAL NEBRASKA...

CITY           SKY/WX    TMP DP  RH WIND       PRES   REMARKS
GRAND ISLAND   CLEAR     48  43  82 S7        30.18F
HASTINGS       FAIR      48  41  76 S6        30.19F
KEARNEY        CLEAR     45  39  81 S6        30.21R
ORD            CLEAR     41  39  93 CALM      30.18R
YORK           CLEAR     48  46  93 S6        30.21F
AURORA         CLEAR     49  43  81 S5        30.20F
LEXINGTON      CLEAR     45  42  89 CALM      30.20R
HOLDREGE       CLEAR     44  40  86 CALM      30.19S
HEBRON         CLEAR     46  44  92 CALM      30.22S

...NEBRASKA PANHANDLE...

CITY           SKY/WX    TMP DP  RH WIND       PRES   REMARKS
CHADRON        CLEAR     42  37  82 E3        30.18S
ALLIANCE       CLEAR     45  42  89 E6        30.16F
SCOTTSBLUFF    CLEAR     48  45  89 E9        30.14F
SIDNEY         PTCLDY    46  42  86 SE5       30.17F

...WESTERN AND NORTH CENTRAL NEBRASKA...

CITY           SKY/WX    TMP DP  RH WIND       PRES   REMARKS
VALENTINE      CLEAR     47  39  74 CALM      30.18R
AINSWORTH      CLEAR     46  43  89 SW6       30.17R
ONEILL         CLEAR     46  44  90 S6        30.16S
BROKEN BOW     CLEAR     46  41  82 W3        30.19R
IMPERIAL       CLEAR     47  43  86 E6        30.17F
NORTH PLATTE   CLEAR     41  39  93 CALM      30.19S
MCCOOK         CLEAR     46  42  86 E6        30.19R

...EASTERN NEBRASKA...

CITY           SKY/WX    TMP DP  RH WIND       PRES   REMARKS
NORFOLK        CLEAR     49  44  83 S10       30.17F
SO SIOUX CITY  CLEAR     47  44  90 E6        30.18F
TEKAMAH        PTCLDY    49  46  90 S7        30.20F
ALBION         CLEAR     45  41  85 SE3       30.18S
OMAHA EPPLEY   MOCLDY    54  45  71 S5        30.23S
OFFUTT AFB     CLOUDY    52  52  99 E5        30.22S
LINCOLN        CLOUDY    54  47  77 S6        30.22F
NEBRASKA CITY  CLOUDY    53  41  63 S6        30.23S
BEATRICE       CLOUDY    55  46  71 S5        30.22S
FALLS CITY     CLOUDY    53  48  83 SE5       30.24S

...NORTHERN KANSAS...

CITY           SKY/WX    TMP DP  RH WIND       PRES   REMARKS
GOODLAND       CLEAR     49  47  93 S9        30.18S
HILL CITY      CLEAR     46  42  86 E5        30.19S
NORTON         CLEAR     43  37  81 CALM      30.18S
PHILLIPSBURG   CLEAR     45  43  93 E6        30.20S
SMITH CENTER   CLEAR     45  41  87 E9        30.21S
BELOIT         CLEAR     46  45  93 CALM      30.20S
HAYS           CLEAR     46  39  76 SE5       30.20S
RUSSELL        CLEAR     49  43  80 S9        30.19S
CONCORDIA      CLEAR     47  45  93 S7        30.21F
SALINA         CLEAR     54  45  71 SE7       30.23R
TOPEKA         CLOUDY    56  50  80 CALM      30.26F



USA.gov is the U.S. government's official web portal to all federal, state and local government web resources and services.